Location: Anankanda
(14.7841°N, 3.0348°W)
Time: 00:37:26
(UTC+00:00)

BREEZE-M DEB (TANK) - Pass Details

Date: 17 January 2021
Orbit: 440 x 13842 km, 45.9° (Epoch: 07 March)

Event Time Altitude Azimuth Distance (km) Brightness Sun altitude
Rises 19:40:17 0° 328° (NNW) 2,690 6.0 -23.0°
Reaches altitude 10° 19:41:50 10° 336° (NNW) 2,034 5.3 -23.4°
Maximum altitude 19:45:54 49° 53° (NE) 1,324 3.8 -24.3°
Enters shadow 19:46:35 48° 73° (ENE) 1,459 3.9 -24.5°
Exits shadow 19:53:12 19° 121° (ESE) 3,960 6.2 -26.0°
Drops below altitude 10° 19:57:59 10° 126° (SE) 5,859 7.2 -27.1°
Sets 20:06:31 0° 130° (SE) 8,918 8.1 -29.1°
